Regional Weather Roundup
Issued by NWS New Orleans/Baton Rouge, LA

Home | Current Version | Previous Version | Text Only | Print | Product List | Glossary On
Versions: 1 2 3 4 5 6 7 8 9 10 11 12 13 14 15 16 17 18 19 20 21 22 23 24 25 26 27 28 29 30 31 32 33 34 35 36 37 38 39 40 41 42 43 44 45 46 47 48 49 50
071
ASUS44 KLIX 240010
RWRLIX
NEW ORLEANS REGIONAL WEATHER ROUNDUP
NATIONAL WEATHER SERVICE NEW ORLEANS LA
600 PM CST SUN NOV 23 2014

NOTE: "FAIR" INDICATES FEW OR NO CLOUDS BELOW 12,000 FEET WITH NO
      SIGNIFICANT WEATHER AND/OR OBSTRUCTIONS TO VISIBILITY.
      SKY/WX - SKY CONDITION AND SIGNIFICANT WEATHER.
      TMP - AIR TEMPERATURE.     DP    - DEWPOINT TEMPERATURE.
      RH  - RELATIVE HUMIDITY.   PRES  - PRESSURE.
      HI  - HEAT INDEX.          WCI   - WIND CHILL INDEX.

*  THESE STATIONS ARE NOT NWS OR FAA STATIONS AND ARE NOT UNDER
   NWS QUALITY CONTROL.

LAZ038-040-048-061>063-065>067-069-240100-
SOUTHEAST LOUISIANA

CITY           SKY/WX    TMP DP  RH WIND       PRES   REMARKS
N.O. AUDUBON     N/A     67  64  90 MISG        N/A
6HR MIN TEMP:  67; 6HR MAX TEMP:  75;

N.O. INTL ARPT PTCLDY    70  60  70 S9        29.68R
6HR MIN TEMP:  70; 6HR MAX TEMP:  76;

N.O. LAKEFRONT CLEAR     69  60  73 S12       29.69R
6HR MIN TEMP:  69; 6HR MAX TEMP:  75;

N.O. DOWNTOWN*   N/A     70  61  73 S7        29.69R
6HR MIN TEMP:  68; 6HR MAX TEMP:  75;

SLIDELL        CLEAR     67  57  70 S6        29.67R
6HR MIN TEMP:  64; 6HR MAX TEMP:  74;

BATON ROUGE    CLEAR     69  62  78 S17       29.62R
6HR MIN TEMP:  68; 6HR MAX TEMP:  75;

BOOTHVILLE     PTCLDY    66  66 100 S9        29.72R
6HR MIN TEMP:  64; 6HR MAX TEMP:  70;

BELLE CHASSE   MOCLDY    68  63  84 SW10      29.68R
6HR MIN TEMP:  67; 6HR MAX TEMP:  76; 6HR PCP: TRACE;

BOGALUSA*        N/A     67  58  70 S6        29.66R
6HR MIN TEMP:  67; 6HR MAX TEMP:  76;

NEW ROADS*       N/A     68  61  76 S13       29.61R
6HR MIN TEMP:  68; 6HR MAX TEMP:  74;

GONZALES*        N/A     68  65  89 S6        29.64S
6HR MIN TEMP:  68; 6HR MAX TEMP:  74;

HAMMOND*       CLEAR     68  59  73 S7        29.66S
HOUMA*         MOCLDY    70  66  88 S6        29.68R
PORT FOURCHON* CLEAR     70  68  94 S12       29.73R FOG

$$

MSZ070-080>082-240100-
SOUTHERN MISSISSIPPI

CITY           SKY/WX    TMP DP  RH WIND       PRES   REMARKS
MCCOMB         CLEAR     66  59  78 S12       29.61R
6HR MIN TEMP:  66; 6HR MAX TEMP:  72;

GULFPORT       CLEAR     66  61  84 S8        29.69R
6HR MIN TEMP:  62; 6HR MAX TEMP:  69;

BILOXI         CLEAR     64  62  94 S15       29.69R
6HR MIN TEMP:  62; 6HR MAX TEMP:  66;

PASCAGOULA     CLEAR     65  62  90 S7        29.70S
6HR MIN TEMP:  62; 6HR MAX TEMP:  68; 6HR PCP: TRACE;

STENNIS ARPT*  CLEAR     64  59  82 S9        29.68R

$$

COASTAL OBSERVATIONS
LAKE AND NEARSHORE STATIONS

STATION/POSITION TIME  TEMP    WIND        PRES    WAVE
                       AIR SEA DIR/SP/G            HT/PER
                 (UTC) (F)     (DEG/KT/KT) (MB)    (FT/S)
PASCAGOULA       0000   64     200/ 10/ 12 1005.3
WAVELAND YACHT   0000   66     210/  8/ 12 1004.4
GRAND ISLE       0000   70 64  200/  9/ 12 1006.0
SOUTHWEST PASS   0000   69 73              1006.7
NEW CANAL        0000   71 56  200/  5/  7 1005.3
SHELL BEACH      0000   67 54  190/  6/  6 1005.4

OFFSHORE STATIONS

STATION/POSITION TIME  TEMP    WIND        PRES    WAVE
                       AIR SEA DIR/SP/G            HT/PER
                 (UTC) (F)     (DEG/KT/KT) (MB)    (FT/S)

$$




USA.gov is the U.S. government's official web portal to all federal, state and local government web resources and services.